Location: Unspecified
(53.5511°N, 9.9937°E)
Time: 13:12:40
(UTC+00:00)

ISS - Visible Passes

Search period start: 17 April 2026 00:00
Search period end: 27 April 2026 00:00
Orbit: 416 x 425 km, 51.6° (Epoch: 17 April)

Date Brightness Start Highest point End Pass type
(mag) Time Alt. Az. Time Alt. Az. Time Alt. Az.
20 Apr -1.3 03:29:12 10° S 03:31:13 15° SE 03:33:15 10° ESE visible
21 Apr -1.1 02:43:25 10° SSE 02:44:10 11° SE 02:44:55 10° SE visible
23 Apr -1.9 02:43:40 12° SSW 02:45:54 21° SSE 02:48:30 10° E visible
24 Apr -1.6 01:58:03 14° SSE 01:58:45 15° SE 02:00:47 10° ESE visible
25 Apr -1.0 01:12:22 10° SE 01:12:22 10° SE 01:12:27 10° SE visible
25 Apr -2.8 02:45:20 15° SW 02:47:43 35° SSE 02:50:51 10° E visible
26 Apr -2.5 01:59:36 24° S 02:00:28 27° SSE 02:03:24 10° E visible
